Location: Cheyres
(46.8153°N, 6.7877°E)
Time: 00:52:18
(UTC+00:00)

Tiros 1 - Pass Details

Date: 30 May 2022
Orbit: 629 x 663 km, 48.4° (Epoch: 05 July)

Event Time Altitude Azimuth Distance (km) Brightness Sun altitude
Rises 02:33:20 0° 282° (WNW) 2,923 10.2 -10.0°
Reaches altitude 10° 02:35:39 10° 283° (WNW) 2,018 9.4 -9.7°
Maximum altitude 02:40:18 82° 11° (N) 649 7.2 -9.2°
Drops below altitude 10° 02:45:00 10° 100° (E) 2,035 10.2 -8.6°
Sets 02:47:20 0° 101° (E) 2,949 11.1 -8.3°
